This is the latest recevied weather packets stored in our database for station/object KC8PTQ. If no packets are shown the sender has not sent any weather packets the latest 10 day(s).
| Time | Temp. | Humidity | Pressure | Rain* | Wind** | Luminosity | Snow |
|---|---|---|---|---|---|---|---|
| 1778117072 | 8.89° C | 73% | 1014.7 hPa | 0 mm | - | 0 W/m² | - |
| 1778116763 | 8.89° C | 73% | 1014.7 hPa | 0 mm | - | 0 W/m² | - |
| 1778116460 | 8.89° C | 73% | 1014.7 hPa | 0 mm | - | 0 W/m² | - |
| 1778116159 | 8.89° C | 73% | 1014.6 hPa | 0 mm | - | 0 W/m² | - |
| 1778115855 | 8.89° C | 72% | 1014.5 hPa | 0 mm | - | 0 W/m² | - |
| 1778115552 | 9.44° C | 69% | 1014.5 hPa | 0 mm | - | 0 W/m² | - |
| 1778115249 | 9.44° C | 68% | 1014.7 hPa | 0 mm | - | 0 W/m² | - |
| 1778114946 | 9.44° C | 67% | 1014.4 hPa | 0 mm | - | 0 W/m² | - |
| 1778114643 | 9.44° C | 67% | 1014.5 hPa | 0 mm | - | 0 W/m² | - |
| 1778114340 | 9.44° C | 65% | 1014.5 hPa | 0 mm | - | 0 W/m² | - |
| 1778114035 | 9.44° C | 66% | 1014.5 hPa | 0 mm | - | 1 W/m² | - |
| 1778113731 | 9.44° C | 66% | 1014.4 hPa | 0 mm | - | 1 W/m² | - |
| 1778113427 | 10° C | 67% | 1014.5 hPa | 0 mm | - | 2 W/m² | - |
| 1778113124 | 10° C | 66% | 1014.5 hPa | 0 mm | - | 3 W/m² | - |
| 1778112821 | 10° C | 63% | 1014.6 hPa | 0 mm | - | 4 W/m² | - |
| 1778112517 | 10° C | 65% | 1014.5 hPa | 0 mm | - | 5 W/m² | - |
| 1778112213 | 10° C | 65% | 1014.3 hPa | 0 mm | - | 7 W/m² | - |
| 1778111910 | 10° C | 66% | 1014.4 hPa | 0 mm | - | 12 W/m² | - |
| 1778111606 | 10° C | 64% | 1014.2 hPa | 0 mm | - | 16 W/m² | - |
| 1778111302 | 10° C | 61% | 1014.4 hPa | 0 mm | - | 18 W/m² | - |
| 1778111000 | 10° C | 60% | 1014.3 hPa | 0 mm | - | 15 W/m² | - |
| 1778110698 | 10° C | 63% | 1014.5 hPa | 0 mm | - | 17 W/m² | - |
| 1778110393 | 10° C | 63% | 1014.5 hPa | 0 mm | - | 16 W/m² | - |
| 1778110090 | 10.56° C | 63% | 1014.5 hPa | 0 mm | - | 16 W/m² | - |
| 1778109786 | 10.56° C | 62% | 1014.5 hPa | 0 mm | - | 17 W/m² | - |
* Rain latest hour (hover to see other rain measurements)
** Current wind speed in m/s (hover to see current wind gust speed)